Location: Bemmer
(51.5498°N, 5.6249°E)
Time: 18:06:14
(UTC+00:00)

ATLAS CENTAUR R/B - Pass Details

Date: 03 March 2021
Orbit: 475 x 670 km, 64.7° (Epoch: 30 March)

Event Time Altitude Azimuth Distance (km) Brightness Sun altitude
Rises 18:19:37 0° 188° (S) 2,519 4.8 -9.8°
Reaches altitude 10° 18:22:00 10° 174° (S) 1,640 3.7 -10.2°
Maximum altitude 18:24:58 24° 119° (ESE) 1,022 2.2 -10.6°
Enters shadow 18:27:02 15° 74° (ENE) 1,361 2.7 -11.0°
